Regional Weather Roundup
Issued by NWS

Home | Current Version | Previous Version | Graphics & Text | Print | Product List | Glossary On
Versions: 1 2 3 4 5 6 7 8 9 10 11 12 13 14 15 16 17 18 19 20 21 22 23 24 25 26 27 28 29 30 31 32 33 34 35 36 37 38 39 40 41 42 43 44 45 46 47 48 49 50
000
ASUS43 KIND 210209
RWRIN

WEATHER ROUNDUP FOR INDIANA
NATIONAL WEATHER SERVICE INDIANAPOLIS IN
1000 PM EDT SAT SEP 20 2014

NOTE: "FAIR" INDICATES FEW OR NO CLOUDS BELOW 12,000 FEET WITH NO
SIGNIFICANT WEATHER AND/OR OBSTRUCTIONS TO VISIBILITY.

* - STATION DOES NOT REPORT WEATHER SUCH AS PRECIPITATION OR FOG.

+ - STATION NOT QUALITY CONTROLLED BY THE NATIONAL WEATHER SERVICE.
    USE DATA WITH CAUTION...ESPECIALLY DEWPOINT AND RELATIVE
    HUMIDITY OBSERVATIONS.

INZ001>003-010>013-019-020-210300-
NORTHWEST INDIANA

CITY           SKY/WX    TMP DP  RH WIND       PRES   REMARKS
GARY /AIRPORT/ MOCLDY    72  66  83 S3        29.82S
LA PORTE +     PTCLDY    66  66 100 SW6       29.83F
MICHIGAN CITY+ CLEAR     64  64 100 S6        29.82S
MONTICELLO +   MOCLDY    66  65  97 S5        29.85F
RENSSELAER +   MOCLDY    68  68 100 S7        29.84F
VALPARAISO     MOCLDY    68  66  93 S8        29.83F

$$

LMZ046-743>745-210300-
SOUTHERN LAKE MICHIGAN

STATION/POSITION TIME  TEMP WIND        PRES
                       AIR  DIR/SP/G
                 (UTC) (F)  (DEG/KT/KT) (MB)
MICHIGAN CITY    0200   69  170/ 11/ 15   N/A

$$

INZ004-005-014>016-021>024-210300-
NORTH CENTRAL INDIANA

CITY           SKY/WX    TMP DP  RH WIND       PRES   REMARKS
GOSHEN         MOCLDY   N/A N/A N/A SW12      29.83F
LOGANSPORT +   LGT RAIN  64  63  94 S10       29.87F
PERU/GRISSOM   MOCLDY    66  66 100 S7        29.88S
ROCHESTER +    MOCLDY    68  66  94 SW10G17   29.86F
SOUTH BEND     PTCLDY    67  65  93 SW8       29.83S
WARSAW +       LGT RAIN  64  64 100 SW5       29.85F

$$

INZ006>009-017-018-025>027-210300-
NORTHEAST INDIANA

CITY           SKY/WX    TMP DP  RH WIND       PRES   REMARKS
ANGOLA *+      CLEAR     64  63  94 SW8       29.84F
AUBURN +       CLOUDY    64  61  88 SW6       29.86F
FORT WAYNE     CLOUDY    64  62  93 SW6       29.88F
HUNTINGTON +   CLOUDY    65  64  96 SW6       29.88S

$$

INZ028-029-035-036-043>045-051>053-210300-
WEST CENTRAL INDIANA

CITY           SKY/WX    TMP DP  RH WIND       PRES   REMARKS
GREENCASTLE +  CLOUDY    70  66  88 CALM      29.92S
LAFAYETTE      LGT RAIN  67  66  97 CALM      29.86F
TERRE HAUTE    CLOUDY    76  67  73 SW6       29.92S

$$

INZ030>032-037>040-046>048-054>057-064-065-210300-
CENTRAL INDIANA

CITY           SKY/WX    TMP DP  RH WIND       PRES   REMARKS
CP ATTERBURY + CLOUDY    72  64  78 S7        29.93S HAZE
COLUMBUS       PTCLDY    73  66  78 S9        29.93F
FISHERS *+       N/A     66  66 100 SE3       29.90
FRANKFORT +    CLOUDY   N/A N/A N/A SE6       29.87F THUNDER
GREENWOOD *+   CLOUDY    73  68  83 S6        29.92
INDIANAPOLIS   CLOUDY    71  67  87 S10       29.90F
-EAGLE CREEK   CLOUDY    71  67  87 S3        29.90F
KOKOMO *+      CLOUDY    64  63  94 S8        29.90S
MARION +       LGT RAIN  64  64  97 SW10      29.91R
MT COMFORT *+  CLOUDY    70  66  88 S6        29.91F
SHELBYVILLE    CLOUDY    73  65  75 S8        29.92S
ZIONSVILLE +   CLOUDY    66  63  88 S6        29.91S

$$

INZ033-034-041-042-049-050-058-059-210300-
EAST CENTRAL INDIANA

CITY           SKY/WX    TMP DP  RH WIND       PRES   REMARKS
MUNCIE         CLOUDY    67  64  90 S5        29.92F

$$

INZ060-061-067>069-081>083-085>088-210300-
SOUTHWEST INDIANA

CITY           SKY/WX    TMP DP  RH WIND       PRES   REMARKS
EVANSVILLE     CLEAR     73  66  78 CALM      29.97R
WASHINGTON +   PTCLDY    72  67  86 S7        29.94F

$$

INZ062-063-066-070>080-084-089>092-210300-
SOUTH CENTRAL AND SOUTHEAST INDIANA

CITY           SKY/WX    TMP DP  RH WIND       PRES   REMARKS
BLOOMINGTON    MOCLDY    71  66  84 S5        29.94F
SEYMOUR +      MOCLDY    70  66  88 S7        29.93F

$$




USA.gov is the U.S. government's official web portal to all federal, state and local government web resources and services.